Regional Weather Roundup
Issued by NWS Sioux Falls, SD

Home | Current Version | Previous Version | Text Only | Print | Product List | Glossary On
Versions: 1 2 3 4 5 6 7 8 9 10 11 12 13 14 15 16 17 18 19 20 21 22 23 24 25 26 27 28 29 30 31 32 33 34 35 36 37 38 39 40 41 42 43 44 45 46 47 48 49 50
000
ASUS43 KFSD 060602
RWRFSD

WEATHER ROUNDUP FOR SE SOUTH DAKOTA/SW MINNESOTA/NW IOWA
NATIONAL WEATHER SERVICE SIOUX FALLS SD
100 AM CDT WED MAY 06 2015

NOTE: "FAIR" INDICATES FEW OR NO CLOUDS BELOW 12,000 FEET WITH NO
SIGNIFICANT WEATHER AND OR OBSTRUCTIONS TO VISIBILITY.


SDZ038>040-050-052>070-060700-
SOUTHEAST SOUTH DAKOTA

CITY           SKY/WX    TMP DP  RH WIND       PRES   REMARKS
BROOKINGS      CLOUDY    59  57  94 SE17      30.00S
CHAMBERLAIN    NOT AVBL
HURON          MOCLDY    61  58  90 SE13      29.91F
6HR MIN TEMP:  60; 6HR MAX TEMP:  64; 6HR PCP: TRACE;

MADISON        CLOUDY    59  59 100 SE18      29.98S
MITCHELL       MOCLDY    63  59  87 SE14      29.91F
6HR MIN TEMP:  62; 6HR MAX TEMP:  66;

SIOUX FALLS    CLOUDY    62  60  93 SE16      29.97F FOG
6HR MIN TEMP:  62; 6HR MAX TEMP:  68;

WINNER         CLOUDY    61  54  77 S8        29.86F
YANKTON        MOCLDY    64  55  72 E7        29.93S
$$

MNZ071-072-080-081-089-090-097-098-060700-
SOUTHWEST MINNESOTA

CITY           SKY/WX    TMP DP  RH WIND       PRES   REMARKS
FAIRMONT       CLOUDY    55  52  88 SE13      30.07S VSB 3/4
JACKSON        FOG       55  54  94 SE14G20   30.05F VSB 1/2
LUVERNE        CLOUDY    61  57  88 SE12G18   30.01F FOG
MARSHALL       CLOUDY    57  52  82 SE16G23   30.03S
6HR MIN TEMP:  57; 6HR MAX TEMP:  61;

MONTEVIDEO     CLOUDY    57  54  88 S17       30.04F
REDWOOD FALLS  CLOUDY    56  53  90 SE12      30.05F
TRACY          CLOUDY    57  56  95 SE12      30.04S FOG
WORTHINGTON    CLOUDY    57  54  88 SE14      30.04F VSB 1/2
$$

IAZ001>003-012>014-020>022-031-032-NEZ013-014-SDZ071-060700-
NORTHWEST IOWA

CITY           SKY/WX    TMP DP  RH WIND       PRES   REMARKS
DENISON        CLOUDY    63  63 100 SE7       29.99F
ESTHERVILLE    FOG       56  56 100 SE13      30.05F VSB 1/4
SIOUX CITY     LGT RAIN  66  58  75 SE13      29.96S
6HR MIN TEMP:  65; 6HR MAX TEMP:  74; 6HR PCP: TRACE;

SPENCER        FOG       61  50  67 SE14      30.03F VSB 3/4
6HR MIN TEMP:  59; 6HR MAX TEMP:  62;

$$

ABBREVIATIONS USED IN REMARKS
   TC - TEMPERATURE IN CELSIUS
  WCI - WIND CHILL INDEX
   HX - HEAT INDEX
  VSB - VISIBILITY



USA.gov is the U.S. government's official web portal to all federal, state and local government web resources and services.